Погода в Смолеевке

Россия / Рязанская область     53°41′35″N   40°33′17″E
темп.,
°C
ветер,
м/с
пор.,
м/с
влажн.,
%
обл.,
%
осадки,
мм/ч
давл.,
гПа
погр.,
м
5 марта, пт
пт500:00−2з51097100 1.1 1000500
03:00−3ссз3797100 1.8 1002312
06:00−5сз489798 0.4 1004224
09:00−7сз379471 0.4 1007223
12:00−4сз35894 0.0 1009371
15:00−3з468929 0.0 1011654
18:00−6зюз349232 0.0 101158
21:00−8з349316 0.0 101450
6 марта, сб
сб600:00−10зсз23907 0.0 101521
03:00−12з22885 0.0 101621
06:00−13сз11884 0.0 101621
09:00−10сз018919 0.0 101724
12:00−6сз1284100 0.0 1016248
15:00−5сз238689 0.0 1015504
18:00−9сз339360 0.0 101527
21:00−12з349229 0.0 101629
7 марта, вс
вс700:00−13з44930 0.0 101669
03:00−14зюз44930 0.0 101573
06:00−13юз510930 0.0 1013171
09:00−9юз8158642 0.0 1010502
12:00−5юз101781100 0.0 1006849
15:00−4юз122093100 0.6 10001284
18:00−2юз111989100 1.5 9961221
21:00−8з7177788 2.4 998725
8 марта, пн
пн800:00−10зюз613810 0.0 1003317
03:00−11юз714820 0.0 1002306
06:00−11юз7158277 0.0 999408
09:00−6юз7149383 0.1 998870
12:00−6зсз81182100 0.5 999963
15:00−8зсз9138490 0.6 10011259
18:00−9з6158295 0.3 1004611
21:00−10з6158769 0.3 1007453
9 марта, вт
вт900:00−12з5119526 0.0 1009225
03:00−14з469746 0.0 1010110
06:00−16зсз339757 0.0 101231
09:00−13сз249576 0.1 1013193
12:00−11сз358997 0.1 1014516
15:00−11сз568799 0.1 1014737
18:00−15сз3694100 0.0 101597
21:00−17сз349664 0.0 101869